TimeEDT,TemperatureF,Dew PointF,Humidity,Sea Level PressureIn,VisibilityMPH,Wind Direction,Wind SpeedMPH,Gust SpeedMPH,PrecipitationIn,Events,Conditions,WindDirDegrees,DateUTC
12:15 AM,37.4,35.6,93,30.03,7.0,Calm,Calm,-,N/A,,Clear,0,2012-10-21 04:15:00
12:35 AM,37.4,35.6,93,30.03,7.0,Calm,Calm,-,N/A,,Clear,0,2012-10-21 04:35:00
12:55 AM,37.4,35.6,93,30.04,5.0,Calm,Calm,-,N/A,,Clear,0,2012-10-21 04:55:00
1:15 AM,35.6,33.8,93,30.04,7.0,Calm,Calm,-,N/A,,Clear,0,2012-10-21 05:15:00
1:35 AM,37.4,35.6,93,30.04,7.0,Calm,Calm,-,N/A,,Clear,0,2012-10-21 05:35:00
1:55 AM,35.6,33.8,93,30.05,4.0,Calm,Calm,-,N/A,,Clear,0,2012-10-21 05:55:00
2:15 AM,35.6,33.8,93,30.05,7.0,Calm,Calm,-,N/A,,Clear,0,2012-10-21 06:15:00
2:35 AM,35.6,33.8,93,30.05,7.0,Calm,Calm,-,N/A,,Clear,0,2012-10-21 06:35:00
2:55 AM,33.8,33.8,100,30.06,5.0,Calm,Calm,-,N/A,,Clear,0,2012-10-21 06:55:00
3:15 AM,33.8,32.0,93,30.07,7.0,Calm,Calm,-,N/A,,Clear,0,2012-10-21 07:15:00
3:35 AM,33.8,33.8,100,30.08,4.0,Calm,Calm,-,N/A,,Clear,0,2012-10-21 07:35:00
3:55 AM,33.8,32.0,93,30.08,4.0,Calm,Calm,-,N/A,,Clear,0,2012-10-21 07:55:00
4:15 AM,32.0,32.0,100,30.08,10.0,Calm,Calm,-,N/A,,Clear,0,2012-10-21 08:15:00
4:35 AM,33.8,32.0,93,30.08,5.0,Calm,Calm,-,N/A,,Clear,0,2012-10-21 08:35:00
5:15 AM,33.8,32.0,93,30.10,5.0,Calm,Calm,-,N/A,,Mostly Cloudy,0,2012-10-21 09:15:00
5:35 AM,32.0,32.0,100,30.10,7.0,Calm,Calm,-,N/A,,Overcast,0,2012-10-21 09:35:00
5:55 AM,33.8,32.0,93,30.11,4.0,Calm,Calm,-,N/A,,Overcast,0,2012-10-21 09:55:00
6:15 AM,33.8,32.0,93,30.12,2.5,Calm,Calm,-,N/A,,Overcast,0,2012-10-21 10:15:00
6:35 AM,32.0,32.0,100,30.13,0.8,Calm,Calm,-,N/A,,Mist,0,2012-10-21 10:35:00
6:55 AM,32.0,32.0,100,30.14,0.5,Calm,Calm,-,N/A,Fog,Fog,0,2012-10-21 10:55:00
7:15 AM,32.0,32.0,100,30.15,0.5,Calm,Calm,-,N/A,Fog,Fog,0,2012-10-21 11:15:00
7:35 AM,32.0,32.0,100,30.16,0.5,Calm,Calm,-,N/A,Fog,Fog,0,2012-10-21 11:35:00
7:55 AM,33.8,32.0,93,30.16,0.5,Calm,Calm,-,N/A,Fog,Fog,0,2012-10-21 11:55:00
8:15 AM,33.8,33.8,100,30.17,0.2,Calm,Calm,-,N/A,Fog,Fog,0,2012-10-21 12:15:00
8:35 AM,33.8,33.8,100,30.18,0.2,Calm,Calm,-,N/A,Fog,Fog,0,2012-10-21 12:35:00
8:55 AM,35.6,35.6,100,30.19,0.2,Calm,Calm,-,N/A,Fog,Fog,0,2012-10-21 12:55:00
9:15 AM,37.4,35.6,93,30.19,0.2,Calm,Calm,-,N/A,Fog,Fog,0,2012-10-21 13:15:00
9:35 AM,37.4,37.4,100,30.20,0.2,Calm,Calm,-,N/A,Fog,Fog,0,2012-10-21 13:35:00
9:55 AM,39.2,37.4,93,30.20,0.2,Calm,Calm,-,N/A,Fog,Fog,0,2012-10-21 13:55:00
10:15 AM,41.0,39.2,93,30.19,0.5,Calm,Calm,-,N/A,Fog,Fog,0,2012-10-21 14:15:00
10:35 AM,41.0,41.0,100,30.19,3.0,Calm,Calm,-,N/A,,Mostly Cloudy,0,2012-10-21 14:35:00
10:55 AM,44.6,42.8,93,30.19,10.0,Calm,Calm,-,N/A,,Scattered Clouds,0,2012-10-21 14:55:00
11:15 AM,48.2,46.4,93,30.18,10.0,Calm,Calm,-,N/A,,Clear,0,2012-10-21 15:15:00
11:35 AM,51.8,42.8,71,30.18,10.0,Calm,Calm,-,N/A,,Clear,0,2012-10-21 15:35:00
11:55 AM,53.6,41.0,62,30.18,10.0,Calm,Calm,-,N/A,,Clear,0,2012-10-21 15:55:00
12:15 PM,57.2,41.0,55,30.17,10.0,Calm,Calm,-,N/A,,Clear,0,2012-10-21 16:15:00
12:35 PM,59.0,41.0,51,30.16,10.0,Calm,Calm,-,N/A,,Clear,0,2012-10-21 16:35:00
12:55 PM,60.8,41.0,48,30.16,10.0,Calm,Calm,-,N/A,,Clear,0,2012-10-21 16:55:00
1:15 PM,62.6,39.2,42,30.15,10.0,Calm,Calm,-,N/A,,Clear,0,2012-10-21 17:15:00
1:35 PM,64.4,37.4,37,30.14,10.0,Calm,Calm,-,N/A,,Clear,0,2012-10-21 17:35:00
1:55 PM,64.4,37.4,37,30.13,10.0,Calm,Calm,-,N/A,,Clear,0,2012-10-21 17:55:00
2:15 PM,68.0,37.4,33,30.12,10.0,Calm,Calm,-,N/A,,Clear,0,2012-10-21 18:15:00
2:35 PM,69.8,37.4,31,30.12,7.0,Calm,Calm,-,N/A,,Clear,0,2012-10-21 18:35:00
2:55 PM,69.8,35.6,28,30.11,4.0,ENE,6.9,-,N/A,,Haze,60,2012-10-21 18:55:00
3:15 PM,71.6,35.6,27,30.11,5.0,WNW,8.1,-,N/A,,Haze,300,2012-10-21 19:15:00
3:35 PM,71.6,35.6,27,30.11,10.0,ENE,4.6,-,N/A,,Clear,60,2012-10-21 19:35:00
3:55 PM,71.6,35.6,27,30.11,10.0,WNW,6.9,-,N/A,,Clear,300,2012-10-21 19:55:00
4:15 PM,71.6,33.8,25,30.11,10.0,WNW,3.5,-,N/A,,Clear,300,2012-10-21 20:15:00
4:35 PM,71.6,33.8,25,30.11,10.0,NW,4.6,-,N/A,,Clear,310,2012-10-21 20:35:00
4:55 PM,71.6,32.0,23,30.11,10.0,WNW,6.9,-,N/A,,Clear,300,2012-10-21 20:55:00
5:15 PM,69.8,32.0,25,30.11,10.0,NW,5.8,-,N/A,,Clear,310,2012-10-21 21:15:00
5:35 PM,69.8,32.0,25,30.12,10.0,WNW,5.8,-,N/A,,Clear,290,2012-10-21 21:35:00
5:55 PM,69.8,32.0,25,30.12,10.0,WNW,4.6,-,N/A,,Clear,290,2012-10-21 21:55:00
6:15 PM,68.0,33.8,28,30.13,10.0,WNW,4.6,-,N/A,,Clear,300,2012-10-21 22:15:00
6:35 PM,64.4,37.4,37,30.13,10.0,Calm,Calm,-,N/A,,Clear,0,2012-10-21 22:35:00
6:55 PM,53.6,42.8,67,30.14,10.0,WSW,4.6,-,N/A,,Clear,240,2012-10-21 22:55:00
7:15 PM,51.8,42.8,71,30.15,10.0,Calm,Calm,-,N/A,,Clear,0,2012-10-21 23:15:00
7:35 PM,50.0,42.8,76,30.15,10.0,West,4.6,-,N/A,,Clear,260,2012-10-21 23:35:00
7:55 PM,48.2,42.8,82,30.16,10.0,West,4.6,-,N/A,,Clear,260,2012-10-21 23:55:00
8:15 PM,48.2,41.0,76,30.16,10.0,Calm,Calm,-,N/A,,Clear,0,2012-10-22 00:15:00
8:35 PM,44.6,41.0,87,30.17,10.0,Calm,Calm,-,N/A,,Clear,0,2012-10-22 00:35:00
8:55 PM,44.6,41.0,87,30.17,10.0,Calm,Calm,-,N/A,,Clear,0,2012-10-22 00:55:00
9:15 PM,44.6,39.2,81,30.18,10.0,Calm,Calm,-,N/A,,Clear,0,2012-10-22 01:15:00
9:35 PM,42.8,41.0,93,30.18,10.0,Calm,Calm,-,N/A,,Clear,0,2012-10-22 01:35:00
9:55 PM,42.8,39.2,87,30.19,10.0,Calm,Calm,-,N/A,,Clear,0,2012-10-22 01:55:00
10:15 PM,41.0,39.2,93,30.19,10.0,Calm,Calm,-,N/A,,Clear,0,2012-10-22 02:15:00
10:35 PM,41.0,37.4,87,30.19,10.0,Calm,Calm,-,N/A,,Clear,0,2012-10-22 02:35:00
10:55 PM,41.0,37.4,87,30.20,10.0,Calm,Calm,-,N/A,,Clear,0,2012-10-22 02:55:00
11:15 PM,39.2,37.4,93,30.21,10.0,Calm,Calm,-,N/A,,Clear,0,2012-10-22 03:15:00
11:35 PM,39.2,37.4,93,30.21,10.0,Calm,Calm,-,N/A,,Clear,0,2012-10-22 03:35:00
11:55 PM,37.4,37.4,100,30.21,7.0,Calm,Calm,-,N/A,,Clear,0,2012-10-22 03:55:00